Find Starlink 4475

NORAD ID: 53545 Int'l Des: 2022-101 Owner: SPXS Country: US Constellation: starlink operational
LEOCIRCULAR

当前视图

正在加载3D地球...

About Starlink 4475

Starlink 4475 (NORAD 53545) is a starlink constellation satellite (v1.5) launched Aug 19, 2022 by SPXS of US. It operates in LEO, CIRCULAR orbit with a mass of 300.00 kg.

关于 Starlink 4475

正在加载描述...

即将过境

Passes for default location (London). Set your location on the main map for personalized predictions.

高度历史

Loading altitude history...

两行轨道根数

1 53545U 22101U 26168.72201933 -.00000982 00000-0 -43608-4 0 9994
2 53545 53.1618 334.9521 0001455 98.0303 262.0853 15.08841739212099
Epoch: Jun 17, 2026 • Age: 11 hours

当前状态

高度 544.8 km
速度 7.60 km/s
星下点 50.73°N, 60.23°E
发射日期 Aug 19, 2022
运行时间 3.8 years
类型 internet

技术详情

分类 Payload
质量 300.00 kg
干质量 290.00 kg
总质量 300.00 kg
长度 0.20 m
直径 2.80 m
跨度 9.00 m
形状 Box + pan
制造商 SPXS
平台类型 Starlink
阶段状态 In Orbit
所有者/国家 SPXS/US

Most Searched